Silver Bay, MN

7:03 PM CDT on June 23, 2017 (GMT -0500)
Silver Bay Municipal

Weather History for KBFW - January, 2014

Change the Weather History Date:

Saturday, January 18, 2014

  Actual Average Record
Temperature  
Mean Temperature 4 °F -  
Max Temperature 19 °F 17 °F 48 °F (2017)
Min Temperature -11 °F 0 °F -29 °F (2005)
Degree Days  
Heating Degree Days 61    
Moisture  
Dew Point 4 °F    
Average Humidity 81    
Maximum Humidity 100    
Minimum Humidity 58    
Precipitation  
Precipitation 0.00 in - - ()
Sea Level Pressure  
Sea Level Pressure 29.71 in    
Wind  
Wind Speed 1 mph (SW)    
Max Wind Speed 9 mph    
Max Gust Speed 17 mph    
Visibility 8 miles    
Events Snow    
Averages and records for this station are not official NWS values.
T = Trace of Precipitation, MM = Missing Value Source: NWS Daily Summary

Daily Weather History Graph

Daily Weather History Graph

Search for Another Location

Airport or City:

Trip Planner

Search our weather history database for the weather conditions in past years. The results will help you decide how hot, cold, wet, or windy it might be!

Date:

Astronomy

Jan. 18, 2014 Rise Set
Actual Time 7:45 AM CST 4:47 PM CST
Civil Twilight 7:11 AM CST 5:21 PM CST
Nautical Twilight 6:33 AM CST 5:58 PM CST
Astronomical Twilight 5:57 AM CST 6:35 PM CST
Moon 7:43 PM CST (1/18) 8:33 AM CST (1/18)
Length of Visible Light 10h 09m
Length of Day
9h 01m
Waning Gibbous, 94% of the Moon is Illuminated
Jan 18
Waning Gibbous
Jan 23
Last Quarter
Jan 30
New
Feb 6
First Quarter
Feb 14
Full

Hourly Weather History & Observations

Time (CST) Temp. Windchill Dew Point Humidity Pressure Visibility Wind Dir Wind Speed Gust Speed Precip Events Conditions
12:13 AM -9.4 °F - -13.0 °F 84% 29.76 in 10.0 mi Calm Calm - N/A   Clear
12:33 AM -9.4 °F - -13.0 °F 84% 29.75 in 10.0 mi Calm Calm - N/A   Clear
12:53 AM -11.2 °F - -14.8 °F 84% 29.74 in 10.0 mi Calm Calm - N/A   Clear
1:13 AM -11.2 °F - -14.8 °F 84% 29.74 in 10.0 mi Calm Calm - N/A   Clear
1:33 AM -11.2 °F - -13.0 °F 92% 29.73 in 10.0 mi Calm Calm - N/A   Clear
1:53 AM -11.2 °F - -14.8 °F 84% 29.72 in 10.0 mi Calm Calm - N/A   Clear
2:13 AM -9.4 °F - -13.0 °F 84% 29.72 in 5.0 mi Calm Calm - N/A Snow Light Snow
2:33 AM -9.4 °F - -13.0 °F 84% 29.71 in 7.0 mi Calm Calm - N/A   Clear
2:53 AM -9.4 °F - -11.2 °F 92% 29.71 in 3.0 mi Calm Calm - N/A Snow Light Snow
3:13 AM -7.6 °F - -9.4 °F 92% 29.71 in 7.0 mi Calm Calm - N/A Snow Light Snow
3:33 AM -5.8 °F - -7.6 °F 92% 29.71 in 5.0 mi Calm Calm - N/A Snow Light Snow
3:53 AM -5.8 °F - -7.6 °F 92% 29.71 in 2.0 mi Calm Calm - N/A Snow Light Snow
4:13 AM -4.0 °F - -7.6 °F 85% 29.71 in 3.0 mi Calm Calm - N/A Snow Light Snow
4:33 AM -2.2 °F - -5.8 °F 85% 29.71 in 3.0 mi Calm Calm - N/A Snow Light Snow
4:53 AM -2.2 °F - -5.8 °F 85% 29.71 in 3.0 mi Calm Calm - N/A Snow Light Snow
5:13 AM -0.4 °F - -2.2 °F 92% 29.71 in 2.5 mi Calm Calm - N/A Snow Light Snow
5:33 AM -0.4 °F - -2.2 °F 92% 29.72 in 2.5 mi Calm Calm - N/A Snow Light Snow
5:53 AM -0.4 °F - -2.2 °F 92% 29.72 in 2.5 mi Calm Calm - N/A Snow Light Snow
6:13 AM -0.4 °F - -2.2 °F 92% 29.74 in 10.0 mi Calm Calm - N/A   Scattered Clouds
6:33 AM -0.4 °F - -4.0 °F 85% 29.74 in 7.0 mi Calm Calm - N/A   Scattered Clouds
6:53 AM -0.4 °F - -2.2 °F 92% 29.74 in 10.0 mi Calm Calm - N/A   Scattered Clouds
7:13 AM -2.2 °F - -4.0 °F 92% 29.75 in 10.0 mi Calm Calm - N/A   Clear
7:33 AM -2.2 °F - -4.0 °F 92% 29.75 in 10.0 mi Calm Calm - N/A   Clear
7:53 AM -5.8 °F - -7.6 °F 92% 29.76 in 7.0 mi Calm Calm - N/A   Scattered Clouds
8:13 AM -5.8 °F - -7.6 °F 92% 29.77 in 10.0 mi Calm Calm - N/A   Scattered Clouds
8:33 AM -4.0 °F - -5.8 °F 92% 29.78 in 10.0 mi Calm Calm - N/A Snow Light Snow
8:53 AM -2.2 °F - -5.8 °F 85% 29.78 in 7.0 mi Calm Calm - N/A Snow Light Snow
9:13 AM -0.4 °F - -0.4 °F 100% 29.79 in 7.0 mi Calm Calm - N/A Snow Light Snow
9:33 AM 1.4 °F - -0.4 °F 92% 29.80 in 10.0 mi Calm Calm - N/A   Scattered Clouds
9:53 AM 10.4 °F - 8.6 °F 92% 29.82 in 10.0 mi Calm Calm - N/A   Scattered Clouds
10:13 AM 10.4 °F - 8.6 °F 92% 29.82 in 10.0 mi Calm Calm - N/A   Scattered Clouds
10:33 AM 14.0 °F - 8.6 °F 79% 29.82 in 10.0 mi Calm Calm - N/A   Scattered Clouds
10:53 AM 12.2 °F - 8.6 °F 85% 29.82 in 10.0 mi Calm Calm - N/A   Scattered Clouds
11:15 AM 15.8 °F - 10.4 °F 79% 29.83 in 10.0 mi Calm Calm - N/A Snow Light Snow
11:33 AM 15.8 °F - 10.4 °F 79% 29.82 in 10.0 mi Calm Calm - N/A Snow Light Snow
11:53 AM 15.8 °F - 10.4 °F 79% 29.82 in 10.0 mi Calm Calm - N/A Snow Light Snow
12:13 PM 17.6 °F 12.3 °F 10.4 °F 73% 29.82 in 10.0 mi SW 3.5 mph - N/A   Scattered Clouds
12:33 PM 17.6 °F - 10.4 °F 73% 29.81 in 10.0 mi Calm Calm - N/A   Clear
12:53 PM 17.6 °F 12.3 °F 10.4 °F 73% 29.80 in 10.0 mi South 3.5 mph - N/A   Clear
1:13 PM 17.6 °F - 10.4 °F 73% 29.79 in 10.0 mi Calm Calm - N/A   Clear
1:33 PM 17.6 °F 12.3 °F 10.4 °F 73% 29.78 in 10.0 mi SSW 3.5 mph - N/A   Clear
1:53 PM 19.4 °F 11.5 °F 10.4 °F 68% 29.77 in 10.0 mi SSW 5.8 mph - N/A   Clear
2:13 PM 19.4 °F 11.5 °F 10.4 °F 68% 29.76 in 10.0 mi South 5.8 mph - N/A   Clear
2:33 PM 19.4 °F 11.5 °F 10.4 °F 68% 29.77 in 10.0 mi South 5.8 mph - N/A   Clear
2:53 PM 19.4 °F 10.4 °F 12.2 °F 74% 29.76 in 10.0 mi South 6.9 mph - N/A   Clear
3:13 PM 17.6 °F 9.3 °F 12.2 °F 79% 29.76 in 10.0 mi South 5.8 mph - N/A   Clear
3:33 PM 17.6 °F 10.7 °F 12.2 °F 79% 29.77 in 10.0 mi SSW 4.6 mph - N/A   Clear
3:53 PM 17.6 °F 12.3 °F 12.2 °F 79% 29.77 in 10.0 mi SSW 3.5 mph - N/A   Clear
4:13 PM 17.6 °F 10.7 °F 8.6 °F 68% 29.76 in 10.0 mi WSW 4.6 mph - N/A   Clear
4:33 PM 19.4 °F - 8.6 °F 63% 29.76 in 10.0 mi Calm Calm - N/A   Clear
4:53 PM 19.4 °F - 6.8 °F 58% 29.76 in 10.0 mi Calm Calm - N/A   Clear
5:13 PM 17.6 °F - 6.8 °F 63% 29.74 in 10.0 mi Calm Calm - N/A   Clear
5:33 PM 17.6 °F 10.7 °F 6.8 °F 63% 29.72 in 10.0 mi SW 4.6 mph - N/A   Clear
5:53 PM 15.8 °F 10.2 °F 8.6 °F 73% 29.72 in 10.0 mi SSW 3.5 mph - N/A   Clear
6:13 PM 15.8 °F 8.6 °F 6.8 °F 68% 29.70 in 10.0 mi SSW 4.6 mph - N/A   Clear
6:33 PM 17.6 °F 10.7 °F 6.8 °F 63% 29.67 in 10.0 mi SW 4.6 mph - N/A   Clear
6:53 PM 17.6 °F 10.7 °F 6.8 °F 63% 29.66 in 10.0 mi SW 4.6 mph - N/A   Clear
7:13 PM 17.6 °F 10.7 °F 6.8 °F 63% 29.65 in 10.0 mi SW 4.6 mph - N/A   Clear
7:33 PM 17.6 °F 9.3 °F 6.8 °F 63% 29.63 in 10.0 mi SSW 5.8 mph - N/A   Clear
7:53 PM 17.6 °F 10.7 °F 8.6 °F 68% 29.61 in 10.0 mi SW 4.6 mph - N/A Snow Light Snow
8:13 PM 17.6 °F 9.3 °F 12.2 °F 79% 29.59 in 4.0 mi SW 5.8 mph - N/A Snow Light Snow
8:33 PM 17.6 °F 9.3 °F 14.0 °F 86% 29.58 in 7.0 mi SW 5.8 mph - N/A Snow Light Snow
8:53 PM 17.6 °F 9.3 °F 14.0 °F 86% 29.57 in 10.0 mi SW 5.8 mph - N/A   Clear
9:13 PM 17.6 °F 12.3 °F 14.0 °F 86% 29.55 in 10.0 mi WSW 3.5 mph - N/A   Clear
9:33 PM 19.4 °F 11.5 °F 14.0 °F 80% 29.53 in 10.0 mi SW 5.8 mph - N/A   Scattered Clouds
9:53 PM 19.4 °F 8.6 °F 15.8 °F 86% 29.50 in 10.0 mi SW 9.2 mph - N/A   Scattered Clouds
10:13 PM 19.4 °F 9.5 °F 15.8 °F 86% 29.48 in 10.0 mi SW 8.1 mph - N/A   Scattered Clouds
10:33 PM 19.4 °F 9.5 °F 15.8 °F 86% 29.47 in 7.0 mi WSW 8.1 mph 17.3 mph N/A   Scattered Clouds
10:53 PM 19.4 °F 11.5 °F 15.8 °F 86% 29.47 in 7.0 mi SW 5.8 mph - N/A   Clear
11:13 PM 19.4 °F 10.4 °F 17.6 °F 93% 29.45 in 5.0 mi SW 6.9 mph 16.1 mph N/A Snow Light Snow
11:33 PM 19.4 °F 10.4 °F 17.6 °F 93% 29.44 in 4.0 mi SW 6.9 mph - N/A Snow Light Snow
11:53 PM 19.4 °F 9.5 °F 17.6 °F 93% 29.42 in 10.0 mi SW 8.1 mph - N/A   Scattered Clouds